Location: ?ejeti?ky
(50.4060°N, 14.9016°E)
Time: 10:42:43
(UTC+00:00)

STARLINK-1282 - Pass Details

Date: 03 October 2020
Orbit: 549 x 550 km, 53.0° (Epoch: 21 October)

Event Time Altitude Azimuth Distance (km) Brightness Sun altitude
Exits shadow 02:34:56 - 154° (SSE) 1,893 6.4 -24.0°
Reaches altitude 10° 02:35:28 10° 148° (SSE) 1,817 6.3 -23.9°
Maximum altitude 02:36:44 11° 130° (SE) 1,740 6.5 -23.8°
Drops below altitude 10° 02:38:01 10° 112° (ESE) 1,821 6.8 -23.6°
Sets 02:41:45 0° 77° (ENE) 2,721 8.6 -23.0°
